Flag for U.S.A. Weather past 2 weeks in Overland Park, Kansas, U.S.A.

Now
73 °F

Clear.


Feels Like: 73 °F
Forecast: 71 / 87 °F
Wind: 7 mph from South

Location: Johnson County Executive Airport

Current Time: Sep 1, 2015 at 11:48:59 PM

Latest Report: Sep 1, 2015 at 10:53 PM


Visibility: 10 mi

Pressure: 30.00 "Hg

Humidity: 81%

Dew point: 67 °F

Location of Overland ParkLocation

Historic Weather in Overland Park — Graph

°F

Overland Park temperature yesterday

Maximum temperature yesterday: 86 °F (at 2:53 PM)
Minimum temperature yesterday: 69 °F (at 4:53 AM)
Average temperature yesterday: 77 °F

Past Weeks' High & Low Weather Summary

 TemperatureHumidityPressure
High86 °F (Aug 31, 2:53 PM)100% (Aug 30, 5:53 AM)30.19 "Hg (Aug 30, 5:53 AM)
Low51 °F (Aug 24, 6:53 AM)37% (Aug 24, 1:53 PM)29.63 "Hg (Aug 18, 5:53 PM)
Average70 °F76%29.98 "Hg
* Reported Aug 17 9:53 PM — Sep 1 9:53 PM, Overland Park, Weather by CustomWeather, © 2015

Note: Actual official high and low records may vary slightly from our data, if they occured in-between our weather recording intervals... More about our weather records

Advertising

Overland Park weather history for previous 24 hours

 ConditionsComfort  
Time TempWeatherWind HumidityBarometerVisibility
9:53 PM
Tue, Sep 1
73 °FClear.8 mph84%29.99 "Hg10 mi
8:53 PM76 °FClear.5 mph77%29.98 "Hg10 mi
7:53 PM77 °FSunny.6 mph74%29.97 "Hg10 mi
6:53 PM82 °FSunny.9 mph65%29.96 "Hg10 mi
5:53 PM84 °FSunny.10 mph57%29.96 "Hg10 mi
4:53 PM85 °FSunny.9 mph59%29.96 "Hg10 mi
3:53 PM86 °FSunny.12 mph57%29.97 "Hg10 mi
2:53 PM86 °FSunny.13 mph57%29.98 "Hg10 mi
1:53 PM85 °FSunny.13 mph59%29.99 "Hg10 mi
12:53 PM84 °FSunny.13 mph61%30.00 "Hg10 mi
11:53 AM82 °FSunny.8 mph65%30.01 "Hg10 mi
10:53 AM80 °FSunny.12 mph67%30.01 "Hg10 mi
9:53 AM77 °FSunny.8 mph74%30.01 "Hg10 mi
8:53 AM74 °FSunny.6 mph85%30.01 "Hg8 mi
7:53 AM71 °FSunny.7 mph90%30.01 "Hg7 mi
6:53 AM70 °FPassing clouds.7 mph90%30.00 "Hg7 mi
5:53 AM71 °FClear.6 mph90%29.99 "Hg8 mi
4:53 AM71 °FClear.6 mph90%29.97 "Hg9 mi
3:53 AM71 °FClear.8 mph90%29.97 "Hg9 mi
2:53 AM73 °FClear.7 mph84%29.96 "Hg10 mi
1:53 AM74 °FClear.8 mph85%29.96 "Hg10 mi
12:53 AM73 °FClear.6 mph84%29.97 "Hg10 mi
11:53 PM
Mon, Aug 31
74 °FClear.6 mph85%29.96 "Hg10 mi
Weather by CustomWeather, © 2015

See weather overviewHow to use our weather pages